Regional Weather Roundup
Issued by NWS

Home | Current Version | Previous Version | Graphics & Text | Print | Product List | Glossary Off
Versions: 1 2 3 4 5 6 7 8 9 10 11 12 13 14 15 16 17 18 19 20 21 22 23 24 25 26 27 28 29 30 31 32 33 34 35 36 37 38 39 40 41 42 43 44 45 46 47 48 49 50

000
ASUS44 KFWD 080815
RWRTX
NORTH TEXAS HOURLY WEATHER ROUNDUP
NATIONAL WEATHER SERVICE FORT WORTH TX
200 AM CST MON FEB 08 2016

NOTE: "FAIR" INDICATES FEW OR NO CLOUDS BELOW 12,000 FEET WITH NO
SIGNIFICANT WEATHER AND/OR OBSTRUCTIONS TO VISIBILITY.

TXZ118-119-080900-
DALLAS/FORT WORTH METROPLEX

CITY           SKY/WX    TMP DP  RH WIND       PRES   REMARKS
DFW AIRPORT    PTCLDY    47  22  37 N15       30.28S
DALLAS LOVE    PTCLDY    48  24  39 N14G23    30.28S
FTW MEACHAM    PTCLDY    47  23  38 NW12      30.30R
DAL-EXECUTIVE  PTCLDY    49  19  30 N21G28    30.27S
FTW-ALLIANCE   PTCLDY    44  23  43 NW10      30.30R WCI  39
FTW-NAS-JRB    CLEAR     48  25  40 NW14      30.31R
FTW-SPINKS     CLEAR     47  23  38 N14       30.31S
ARLINGTON      CLEAR     50  21  32 NW16      30.29R
GRAND PRAIRIE  CLEAR     49  21  32 NW9G23    30.30S
ADDISON        CLEAR     47  28  48 NW10G20   30.29S
MESQUITE       CLEAR     48  20  33 NW20      30.27S
LANCASTER      CLEAR     48  23  37 NW15G22   30.28S
$$

TXZ091>094-102>105-117-120-121-131>134-080900-
NORTH CENTRAL TEXAS

CITY           SKY/WX    TMP DP  RH WIND       PRES   REMARKS
SHRMAN/DENISON PTCLDY    45  18  34 NW14      30.27S WCI  38
GAINESVILLE    CLEAR     40  22  48 NW10      30.31S WCI  34
BOWIE          CLEAR     39  20  46 NW12      30.32S WCI  32
BRIDGEPORT     CLEAR     46  24  43 NW10      30.34S
DECATUR        CLEAR     43  18  36 NW10G21   30.31R WCI  37
DENTON         CLEAR     43  23  45 NW12      30.30R WCI  37
MCKINNEY       CLEAR     46  21  37 NW15      30.27S WCI  40
GREENVILLE     CLEAR     45  23  42 NW9       30.25S WCI  40
ROCKWALL       PTCLDY    47  24  39 N14G23    30.26R
TERRELL        CLEAR     49  24  37 NW15G24   30.26R
WAXAHACHIE     CLEAR     47  26  43 N18G25    30.28F
CLEBURNE         N/A     45  25  45 N10       30.31R WCI  39
GRANBURY       CLEAR     48  26  41 NW9       30.33S
$$

TXZ083>090-098>101-113>116-127>130-139>142-154-155-080900-
WESTERN NORTH TEXAS

CITY           SKY/WX    TMP DP  RH WIND       PRES   REMARKS
WICHITA FALLS  MOCLDY    41  17  38 NW15      30.34S WCI  33
WF-KICKAPOO    PTCLDY    44  16  32 NW12      30.36S WCI  38
VERNON         PTCLDY    39  12  32 NW15      30.38F WCI  31
ABILENE        CLEAR     38  22  52 N7        30.37R WCI  33
ABILENE-DYESS  CLEAR     39  20  46 N7        30.36S WCI  34
BRECKENRIDGE   CLEAR     42  19  39 N7        30.36S WCI  38
GRAHAM         CLEAR     39  21  48 NW7       30.35R WCI  34
MINERAL WELLS  CLEAR     44  22  41 N12       30.31S WCI  38
STEPHENVILLE   CLEAR     46  24  41 N14G21    30.33S WCI  40
COMANCHE       CLEAR     45  28  51 N12       30.31S WCI  39
BROWNWOOD      CLEAR     46  23  39 N13G20    30.32R
COLEMAN        CLEAR     44  19  36 N16G22    30.33R WCI  37
$$

TXZ143>147-156>162-174-175-080900-
CENTRAL TEXAS

CITY           SKY/WX    TMP DP  RH WIND       PRES   REMARKS
WACO           CLEAR     45  30  55 NW9       30.27R
WACO-MCGREGOR  CLEAR     47  31  53 N10       30.27
HILLSBORO      PTCLDY    46  29  50 N15       30.27R WCI  40
CORSICANA      PTCLDY    49  31  49 N16       30.25R
MEXIA          CLEAR     46  32  59 N10       30.23R
HEARNE         CLEAR     36  32  87 NW8       30.25R WCI  29
CAMERON        CLEAR     44  34  69 N7        30.24R WCI  40
TEMPLE         CLEAR     45  32  60 N9        30.26R
KILLEEN        CLEAR     44  30  57 N9        30.26R WCI  39
KILLEEN-SKYLRK CLEAR     48  30  49 N13G20    30.26R
FORT HOOD      CLEAR     47  29  49 N12       30.25R
GATESVILLE     CLEAR     48  30  49 N8        30.30R
HAMILTON       CLEAR     47  27  44 N15G22    30.29R
LAMPASAS       CLEAR     46  30  54 N7        30.27R
$$

TXZ095>097-106>112-122>126-135>138-148>153-164>167-080900-
EAST TEXAS

CITY           SKY/WX    TMP DP  RH WIND       PRES   REMARKS
PARIS          CLOUDY    46  19  34 NW18      30.21S WCI  39
SULPHUR SPRNGS CLEAR     47  28  47 NW13      30.25S
MOUNT PLEASANT PTCLDY    48  25  40 NW13      30.21S
GILMER         PTCLDY    48  25  40 NW14G22   30.19S
MINEOLA        PTCLDY    48  27  43 W13G20    30.23S
TYLER          PTCLDY    50  26  39 N13       30.21R
LONGVIEW       PTCLDY    46  32  58 NW12      30.17R
MARSHALL       PTCLDY    50  30  45 NW12G20   30.18S
ATHENS         PTCLDY    50  28  43 N10G18    30.20F
PALESTINE      CLEAR     47  36  64 NW6       30.23R
JACKSONVILLE   CLEAR     51  30  43 NW7       30.20R
HENDERSON      PTCLDY    51  29  44 N9G20     30.18S
CENTER         FAIR      44  36  72 CALM      30.15S
NACOGDOCHES    CLEAR     34  30  86 CALM      30.18R
LUFKIN         CLEAR     41  38  89 W3        30.18S
$$

SUPPLEMENTAL OBSERVATIONS (CENTRAL)

CITY           SKY/WX    TMP DP  RH WIND       PRES   REMARKS
LAKE TEXOMA      N/A     46  27  46 NW25        N/A  WCI  38
CADDO GRASSLND   N/A     46  23  39 NW7         N/A
PAT MAYSE LAKE   N/A     46  18  31 NW15        N/A
CEDAR HILL       N/A     48  27  43 N7G15       N/A
ATHENS           N/A     50  28  43 N10         N/A
LAKE LIMESTONE   N/A     46  34  61 N8          N/A
MCGREGOR         N/A     46  32  57 N8          N/A
TEMPLE           N/A     50  30  46 N3          N/A
$$

SUPPLEMENTAL OBSERVATIONS (WEST)

CITY           SKY/WX    TMP DP  RH WIND       PRES   REMARKS
MILLERS CREEK    N/A     37  18  44 NW7         N/A  WCI  32
LBJ GRASSLAND    N/A     43  19  39 NW7G17      N/A  WCI  39
GRANBURY         N/A     46  23  39 NW12        N/A
COMANCHE         N/A     45  25  45 VRB15       N/A  WCI  38
HAMBY            N/A     39  21  48 N6          N/A  WCI  35
IVIE RESERVOIR   N/A     46  19  34 N14G24      N/A
COLORADO BEND    N/A     45  28  53 NE3         N/A
$$

SUPPLEMENTAL OBSERVATIONS (EAST)

CITY           SKY/WX    TMP DP  RH WIND       PRES   REMARKS
CLARKSVILLE      N/A     46  25  42 NW13        N/A
TEXARKANA        N/A     50  27  40 NW12G22     N/A
LINDEN           N/A     50  25  37 NW12G22     N/A
GILMER           N/A     50  25  37 NW10G18     N/A
HENDERSON        N/A     50  28  43 N20G25      N/A
N SABINE NF      N/A     46  39  76 MISG        N/A
S SABINE NF      N/A     46  39  76 S2          N/A
$$

SUPPLEMENTAL OBSERVATIONS ARE A COLLECTION OF AUTOMATED INSTRUMENTS
THAT ARE MAINTAINED BY A VARIETY OF FEDERAL AND STATE AGENCIES.
CERTAIN ELEMENTS...SUCH AS HUMIDITY VALUES AND SUSTAINED WIND
SPEEDS...MAY BE APPROXIMATED.




USA.gov is the U.S. government's official web portal to all federal, state and local government web resources and services.